Location: St. Louis
(38.6270°N, 90.1994°W)
Time: 21:00:13
(UTC-06:00)

Vanguard 1 - Pass Details

Date: 02 December 2021
Orbit: 652 x 3830 km, 34.2° (Epoch: 21 January)

Event Time Altitude Azimuth Distance (km) Brightness Sun altitude
Rises 22:23:10 0° 217° (SW) 6,713 14.3 -65.1°
Reaches altitude 10° 22:27:25 10° 211° (SSW) 6,036 14.0 -65.7°
Enters shadow 22:27:44 11° 211° (SSW) 5,988 13.9 -65.8°
Exits shadow 23:09:26 - 78° (ENE) 6,793 14.2 -71.3°
Sets 23:12:16 0° 75° (ENE) 7,249 14.4 -71.6°
